Rbgn^[z[y[W
メイン
   新天体発見情報
     Comet C/2021 J2 (PANSTARRS)
投稿するにはまず登録を

フラット表示 前のトピック | 次のトピック
投稿者 スレッド
佐藤裕久
投稿日時: 2021-6-17 17:12
モデレータ
登録日: 2005-6-12
居住地: 日本
投稿: 2676
オンライン
Comet C/2021 J2 (PANSTARRS)

R. Weryk (西オンタリオ大学,物理および天文学科)の通報によると、5月10日、Haleakalaにある
Pan-STARRS1 1.8-m Ritchey-Chretien反射望遠鏡で得た画像から彗星を発見した。
Werykは、5月12.4日UT、Mauna Keaにある3.6-m Canada-France-Hawaii Telescopeを使用して、C. 
CrowderとN. Mansetが得た3個の要求された60秒gri-バンド露出から、彗星状を確認した。p.a. 
75°に向かって約3" の短い尾と、0".6のシーイングでこの彗星の頭部は0".9(半値全幅:FWHM)
であったと付け加えた。
Werykはまた、23.7等と測定された3月20.6日まで遡り、3月25.6日(22.7等)、4月7.6日(22.0-
22.6等)、5月4.4日(21.1-22.3等)と発見前のPan-STARRS1観測を確認した。
小惑星センターのPCCP webpageに公表後、佐藤英貴氏(東京都文京区, 5月18.2日, 60秒露出40枚
のスタック, 0.43-m f/6.8 アストログラフ, Mayhill近郊, ニューメキシコ州, 遠隔操作: 外観
は恒星状。5".7の円形範囲で測定した光度は20.9等であった)と観測した。

彗星機能の報告は次の通り:

OC   Date        Reporter           Coma    Tail    PA          Exposures
F51  2021-05-31  R. Weryk           0".5    2"      75            4x45s

発見位置は次のとおり、

     2021 UT             R.A. (2000) Decl.       Mag.
     May  10.40923   15 11 14.36   - 4 30 35.3   22.0
          10.42121   15 11 13.19   - 4 30 33.0   21.6
          10.43321   15 11 12.01   - 4 30 30.8   21.6
          10.45857   15 11 09.48   - 4 30 26.0   21.9
          10.47033   15 11 08.34   - 4 30 23.5   21.8
          10.49499   15 11 05.91   - 4 30 18.9   21.5

MPCの楕円軌道要素、位置推算表は次のとおり、

Orbital elements:
    C/2021 J2 (PANSTARRS)                                                       
Epoch 2021 Sept. 23.0 TT = JDT 2459480.5                                        
T 2021 Sept. 22.42252 TT                                Rudenko                 
q   4.7070759            (2000.0)            P               Q                  
z  +0.0083234      Peri.  172.05236     -0.85935692     -0.48579334             
 +/-0.0000000      Node    23.32519     -0.48856565     +0.87219350             
e   0.9608212      Incl.  156.21002     -0.15102743     -0.05730027             
From 48 observations 2021 Mar. 20-May 31, mean residual 0".2.                   
                                                                                
    C/2021 J2 (PANSTARRS)                                                       
Epoch 2020 Dec. 17.0 TT = JDT 2459200.5                                         
T 2021 Sept. 22.39859 TT                                Rudenko                 
q   4.7072650            (2000.0)            P               Q                  
z  +0.0084622      Peri.  172.04884     -0.85929784     -0.48588365             
 +/-0.0000000      Node    23.32863     -0.48866673     +0.87213812             
e   0.9601663      Incl.  156.20672     -0.15103656     -0.05737754             
From 48 observations 2021 Mar. 20-May 31, mean residual 0".2.                   
                                                                                
Ephemeris:
Date    TT    R. A. (2000) Decl.     Delta      r    Elong.  Phase   m1
2021 05 03    15 23 14.7 -04 54 50   3.8542  4.8349   165.0     3.1  21.8
...
2021 05 18    14 58 53.6 -04 08 11   3.8384  4.8098   161.8     3.8  21.7
...
2021 05 26    14 46 12.1 -03 48 19   3.8719  4.7974   153.1     5.5  21.7
...
2021 06 01    14 37 06.4 -03 36 24   3.9149  4.7887   145.9     6.8  21.8
2021 06 02    14 35 38.2 -03 34 41   3.9234  4.7873   144.7     7.0  21.8
2021 06 03    14 34 10.9 -03 33 03   3.9323  4.7859   143.5     7.2  21.8
...
2021 06 09    14 25 46.7 -03 24 57   3.9936  4.7777   136.1     8.5  21.8
...
2021 06 17    14 15 33.6 -03 18 53   4.0937  4.7675   126.4     9.9  21.8
...
2021 07 02    13 59 47.3 -03 21 45   4.3244  4.7504   108.8    11.7  21.9

(MPEC 2021-L24、CBET 4973)

フラット表示 前のトピック | 次のトピック

題名 投稿者 日時
 » Comet C/2021 J2 (PANSTARRS) 佐藤裕久 2021-6-17 17:12

投稿するにはまず登録を
 
© 1999 Tsutomu Seki.